Lincoln, NE

9:10 AM CDT on April 21, 2018 (GMT -0500)
Lincoln Municipal

Weather History for KLNK - July, 2014

Change the Weather History Date:

Wednesday, July 30, 2014

  Actual Average Record
Temperature  
Mean Temperature 70 °F 77 °F  
Max Temperature 84 °F 89 °F 106 °F (1917)
Min Temperature 56 °F 66 °F 46 °F (1971)
Degree Days  
Heating Degree Days 0 0  
Month to date heating degree days 2 0  
Since 1 June heating degree days 4 16  
Since 1 July heating degree days 2 0  
Cooling Degree Days 5 12  
Month to date cooling degree days 315 381  
Year to date cooling degree days 753 702  
Since 1 June cooling degree days 593 623  
Growing Degree Days 20 (Base 50)    
Moisture  
Dew Point 53 °F    
Average Humidity 60    
Maximum Humidity 87    
Minimum Humidity 33    
Precipitation  
Precipitation 0.00 in 0.10 in 1.58 in (1992)
Month to date precipitation 0.51 3.29  
Year to date precipitation 16.16 17.98  
Snow  
Snow 0.00 in 0.00 in - ()
Month to date snowfall 0.0 0.0  
Since 1 July snowfall 0.0 0.0  
Snow Depth 0.00 in    
Sea Level Pressure  
Sea Level Pressure 30.12 in    
Wind  
Wind Speed 5 mph (NNE)    
Max Wind Speed 14 mph    
Max Gust Speed 18 mph    
Visibility 10 miles    
Events      
T = Trace of Precipitation, MM = Missing Value Source: NWS Daily Summary

Daily Weather History Graph

Daily Weather History Graph

Search for Another Location

Airport or City:

Astronomy

Jul. 30, 2014 Rise Set
Actual Time 6:21 AM CDT 8:44 PM CDT
Civil Twilight 5:50 AM CDT 9:15 PM CDT
Nautical Twilight 5:12 AM CDT 9:53 PM CDT
Astronomical Twilight 4:29 AM CDT 10:36 PM CDT
Moon 9:56 AM CDT (7/30) 10:25 PM CDT (7/30)
Length of Visible Light 15h 25m
Length of Day
14h 23m
Waxing Crescent, 12% of the Moon is Illuminated
Jul 30
Waxing Crescent
Aug 3
First Quarter
Aug 10
Full
Aug 17
Last Quarter
Aug 25
New

Hourly Weather History & Observations

Time (CDT) Temp. Dew Point Humidity Pressure Visibility Wind Dir Wind Speed Gust Speed Precip Events Conditions
12:54 AM 64.0 °F 57.0 °F 78% 30.13 in 10.0 mi North 5.8 mph - N/A   Clear
1:54 AM 64.9 °F 57.0 °F 75% 30.12 in 10.0 mi North 4.6 mph - N/A   Clear
2:54 AM 62.1 °F 55.9 °F 80% 30.12 in 10.0 mi North 3.5 mph - N/A   Clear
3:54 AM 59.0 °F 55.9 °F 90% 30.11 in 10.0 mi North 5.8 mph - N/A   Clear
4:54 AM 57.9 °F 54.0 °F 87% 30.12 in 10.0 mi NNW 3.5 mph - N/A   Clear
5:54 AM 55.9 °F 52.0 °F 87% 30.14 in 10.0 mi North 4.6 mph - N/A   Clear
6:54 AM 57.9 °F 54.0 °F 87% 30.14 in 9.0 mi North 5.8 mph - N/A   Clear
7:54 AM 62.1 °F 55.9 °F 80% 30.14 in 9.0 mi North 3.5 mph - N/A   Clear
8:54 AM 68.0 °F 57.0 °F 68% 30.15 in 9.0 mi NNE 3.5 mph - N/A   Clear
9:54 AM 75.0 °F 55.9 °F 51% 30.14 in 10.0 mi Variable 5.8 mph - N/A   Clear
10:54 AM 78.1 °F 52.0 °F 40% 30.15 in 10.0 mi ENE 9.2 mph - N/A   Clear
11:54 AM 79.0 °F 52.0 °F 39% 30.15 in 10.0 mi NNW 5.8 mph - N/A   Mostly Cloudy
12:54 PM 81.0 °F 51.1 °F 35% 30.14 in 10.0 mi Variable 5.8 mph - N/A   Unknown
1:54 PM 82.9 °F 50.0 °F 32% 30.13 in 10.0 mi North - - N/A   Scattered Clouds
2:54 PM 81.0 °F 48.9 °F 33% 30.12 in 10.0 mi North 6.9 mph - N/A   Scattered Clouds
3:54 PM 82.0 °F 50.0 °F 33% 30.11 in 10.0 mi Variable 6.9 mph - N/A   Scattered Clouds
4:54 PM 81.0 °F 50.0 °F 34% 30.10 in 10.0 mi NE 12.7 mph - N/A   Mostly Cloudy
5:54 PM 81.0 °F 50.0 °F 34% 30.09 in 10.0 mi NNE 10.4 mph - N/A   Scattered Clouds
6:54 PM 80.1 °F 52.0 °F 38% 30.09 in 10.0 mi NNE 9.2 mph - N/A   Clear
7:54 PM 75.9 °F 53.1 °F 45% 30.09 in 10.0 mi NE 5.8 mph - N/A   Clear
8:54 PM 73.0 °F 52.0 °F 48% 30.09 in 10.0 mi ENE 5.8 mph - N/A   Clear
9:54 PM 71.1 °F 53.1 °F 53% 30.10 in 10.0 mi Calm Calm - N/A   Clear
10:54 PM 66.9 °F 55.0 °F 66% 30.10 in 10.0 mi Calm Calm - N/A   Clear
11:54 PM 61.0 °F 55.0 °F 81% 30.11 in 10.0 mi Calm Calm - N/A   Clear